Starlink 31816

operational
NORAD ID: 59742 Int'l Des: 2024-090 Owner: SPXS Country: US Constellation: starlink
LEOCIRCULAR

Über Starlink 31816

Beschreibung wird geladen...

Live-Position

3D-Globus wird geladen...

Nächste Überflüge

Höhenverlauf

Altitude vs Time

uPlot chart will show altitude changes over time

Zweizeiliger Elementsatz

1 59742U 24090N 25304.73578453 -.00001298 00000-0 -37700-4 0 9991
2 59742 43.0004 192.1415 0001064 273.5274 86.5456 15.27547343 83695
Epoch: 31. Okt. 2025 • Age: 23 hours

Aktueller Status

Höhe 495.7 km
Geschwindigkeit 7.62 km/s
Subsatellitenpunkt -43.01°S, 157.88°E
Startdatum 13. Mai 2024
Alter 1.4 years
Typ internet

Technische Details

Klassifizierung Payload
Masse 730.00 kg
Trockenmasse 700.00 kg
Gesamtmasse 730.00 kg
Länge 0.30 m
Durchmesser 4.10 m
Spannweite 29.00 m
Form Box + pan
Hersteller SPXS
Bus-Typ Starlink V2M
Phasenstatus In Orbit
Besitzer/Staat SPXS/US

Große Konstellationen

Loading constellations...